Regional Weather Roundup
Issued by NWS

Home | Current Version | Previous Version | Graphics & Text | Print | Product List | Glossary On
Versions: 1 2 3 4 5 6 7 8 9 10 11 12 13 14 15 16 17 18 19 20 21 22 23 24 25 26 27 28 29 30 31 32 33 34 35 36 37 38 39 40 41 42 43 44 45 46 47 48 49 50
000
ASUS43 KMPX 181501
RWRMN
WEATHER ROUNDUP FOR MINNESOTA
NATIONAL WEATHER SERVICE TWIN CITIES/CHANHASSEN MN
1000 AM CDT FRI AUG 18 2017


NOTE: "FAIR" INDICATES FEW OR NO CLOUDS BELOW 12,000 FEET WITH NO
SIGNIFICANT WEATHER AND/OR OBSTRUCTIONS TO VISIBILITY. N/A MEANS
CURRENT SKY AND/OR WEATHER CONDITIONS ARE NOT AVAILABLE.

MNZ060>063-068>070-181600-
   Twin Cities Metro

CITY           SKY/WX    TMP DP  RH WIND       PRES   REMARKS
TWIN CITIES    CLOUDY    67  60  78 SW5       29.90
ST PAUL        CLOUDY    67  63  87 CALM      29.89
CRYSTAL        CLOUDY    66  59  78 W3        29.88
LAKEVILLE      LGT RAIN  63  63 100 W5        29.91R
EDEN PRAIRIE   LGT RAIN  64  61  90 SW7       29.90
SOUTH ST PAUL  CLOUDY    67  62  83 W7        29.89R
LAKE ELMO      FAIR      68  63  83 W5        29.90R
$$
MNZ001>005-007-008-013>017-022>024-027-028-181600-
   Northwest Minnesota

CITY           SKY/WX    TMP DP  RH WIND       PRES   REMARKS
BEMIDJI        SUNNY     68  61  78 NW7       29.86S
HALLOCK        MOSUNNY   68  59  73 E3        29.83F
ROSEAU         SUNNY     68  59  73 NW6       29.85F
WARROAD        CLOUDY    63  57  82 NW6       29.86R
CROOKSTON      CLOUDY    70  57  64 N14G21    29.86S
FOSSTON        SUNNY     72  57  60 NW12      29.87S
DETROIT LAKES  MOSUNNY   66  61  82 CALM      29.90R
MOORHEAD       CLOUDY    64  63  94 CALM      29.89R
PARK RAPIDS    CLOUDY    69  61  75 NW5       29.88
MAHNOMEN       FAIR      69  61  75 NW7       29.87S
$$
MNZ006-009>011-018-025>026-181600-
   North Central Minnesota

CITY           SKY/WX    TMP DP  RH WIND       PRES   REMARKS
BAUDETTE       MOSUNNY   69  60  73 W3        29.84
FLAG ISLAND    CLOUDY    68  54  60 CALM      29.82F
INTL FALLS     SUNNY     66  60  81 VRB3      29.84
WASKISH        MOSUNNY   68  61  77 NW5       29.85S
BIG FORK       MOSUNNY   66  63  88 CALM      29.85S
LONGVILLE      PTSUNNY   64  64 100 CALM      29.87R
GRAND RAPIDS   CLOUDY    62  59  90 CALM      29.88
CRANE LAKE     CLOUDY    57  57 100 CALM      29.86S FOG
ORR            CLOUDY    64  57  77 CALM      29.83R
COOK           PTSUNNY   59  59 100 CALM      29.86S
WALKER         FAIR      66  60  79 W3        29.87R
$$
MNZ012-019>021-037-181600-
   Northeast Minnesota

CITY           SKY/WX    TMP DP  RH WIND       PRES   REMARKS
DULUTH         CLOUDY    62  58  86 NW6       29.86R
ELY            MOSUNNY   61  57  88 CALM      29.85S
HIBBING        CLOUDY    62  59  90 CALM      29.86
EVELETH        CLOUDY    63  57  82 CALM      29.86S
DULUTH HARBOR  CLOUDY    63  59  88 S5        29.85S
SILVER BAY     MOSUNNY   66  57  72 CALM      29.82
GRAND MARAIS     N/A     69  56  62 VRB5      29.78
$$
MNZ029>031-032-039>041-046>048-054>057-064-181600-
   West Central Minnesota

CITY           SKY/WX    TMP DP  RH WIND       PRES   REMARKS
FERGUS FALLS   CLOUDY    70  63  78 CALM      29.88R
WHEATON        CLOUDY    68  61  77 CALM      29.90R
ALEXANDRIA     PTSUNNY   65  61  87 W7        29.91
ELBOW LAKE     FAIR      66  63  89 S6        29.89S FOG
WADENA         MOSUNNY   64  64 100 S3        29.88R
GLENWOOD       CLOUDY    64  61  88 S3        29.90R
APPLETON       LGT RAIN  64  61  88 SW5       29.89R
BENSON         CLOUDY    64  61  88 SW7       29.91R
ORTONVILLE     PTSUNNY   66  61  82 MISG      29.89R
MADISON        CLOUDY    68  66  94 SW9       29.90R
WILLMAR        LGT RAIN  63  61  94 SW3       29.92R
$$
MNZ033>034-036-042>043-049>051-058-059-181600-
   Central Minnesota

CITY           SKY/WX    TMP DP  RH WIND       PRES   REMARKS
ST CLOUD       CLOUDY    63  62  97 CALM      29.88
SAUK CENTRE    FAIR      64  62  93 SW3       29.90R
PAYNESVILLE    CLOUDY    63  62  96 SW3       29.91R
PINE RIVER     CLOUDY    61  57  88 CALM      29.91R
BRAINERD       CLOUDY    62  60  93 CALM      29.88
STAPLES        PTSUNNY   64  63  94 CALM      29.88S
LONG PRAIRIE   FAIR      63  61  94 S3        29.90S
LITTLE FALLS   CLOUDY    61  59  94 CALM      29.89R
LITCHFIELD     DRIZZLE   64  63  94 CALM      29.91S
BUFFALO        CLOUDY    65  60  83 W6        29.90S
MAPLE LAKE     LGT RAIN  65  63  90 W5        29.90S
HUTCHINSON     LGT RAIN  63  62  96 SW3       29.92S
$$
MNZ037-044-045-052-053-181600-
   East Central Minnesota

CITY           SKY/WX    TMP DP  RH WIND       PRES   REMARKS
PRINCETON      CLOUDY    64  63  94 SW3       29.89R
MORA           CLOUDY    63  59  88 CALM      29.88S
RUSH CITY      CLOUDY    63  59  88 SW3       29.87S
MOOSE LAKE     CLOUDY    63  59  88 CALM      29.84F
HINCKLEY       FAIR      64  63  94 CALM      29.86S
CLOQUET        CLOUDY    64  57  77 NW5       29.86S
MCGREGOR       CLOUDY    59  59 100 CALM      29.87S
$$
MNZ071>073-080-081-089-090-097-098-181600-
   Southwest Minnesota

CITY           SKY/WX    TMP DP  RH WIND       PRES   REMARKS
MONTEVIDEO     DRIZZLE   63  61  94 W3        29.91R
GRANITE FALLS  DRIZZLE   64  62  94 SW8       29.94R
CANBY          CLOUDY    66  61  82 CALM      29.92S
MARSHALL       CLOUDY    64  61  90 SW6       29.93
REDWOOD FALLS  LGT RAIN  62  58  86 S9        29.91
OLIVIA         LGT RAIN  61  59  94 S5        29.91R
PIPESTONE      SUNNY     70  63  78 S3        29.94S
WINDOM         LGT RAIN  63  61  94 S7        29.94F
WORTHINGTON    CLOUDY    62  60  93 E3        29.96
JACKSON        LGT SNOW  61  59  94 CALM      29.97S
TRACY          PTSUNNY   64  63  97 SW6       29.94R
SLAYTON        CLOUDY    62  57  83 S5        29.95F
$$
MNZ065>067-074>077-082>085-091>093-181600-
   South Central Minnesota

CITY           SKY/WX    TMP DP  RH WIND       PRES   REMARKS
MANKATO        CLOUDY    63  61  93 W6        29.94
NEW ULM        LGT RAIN  63  61  94 W5        29.94R
ST JAMES       PTSUNNY   63  61  94 W3        29.95S
FAIRMONT       LGT RAIN  63  61  93 NW3       29.96
GLENCOE        LGT RAIN  64  64 100 W3        29.92R
FARIBAULT      RAIN      64  63  94 SW5       29.93S
OWATONNA       LGT RAIN  63  63 100 SW3       29.94R
WASECA         RAIN      63  61  94 W5        29.94F
ALBERT LEA     RAIN      64  64 100 CALM      29.95R
$$
MNZ078>079-086>088-094>096-181600-
   Southeast Minnesota

CITY           SKY/WX    TMP DP  RH WIND       PRES   REMARKS
ROCHESTER      CLOUDY    63  60  90 W9        29.94
RED WING       CLOUDY    66  61  82 NW3       29.89R
STANTON        CLOUDY    64  61  88 SW6       29.91R
DODGE CENTER   LGT RAIN  63  61  94 SW7       29.95R
WINONA         CLOUDY    70  59  68 W5        29.89R
AUSTIN         RAIN      63  61  94 N3        29.94S
PRESTON        CLOUDY    64  58  78 W8        29.94R
$$
ABBREVIATIONS USED IN REMARKS
   TC - TEMPERATURES IN CELSIUS
  WCI - WIND CHILL INDEX
   HX - HEAT INDEX
  VSB - VISIBILITY
$$




USA.gov is the U.S. government's official web portal to all federal, state and local government web resources and services.